sat.trackr.live / text

‹ back to catalog

STARLINK-2147

NORAD 47736 · 2021-017Q

PAYLOAD ACTIVE UNKNOWN

§ Identity

Operator
Country
US
Launch date
2021-03-04
Launch site
AFETR
Launch vehicle
Mass (kg)
RCS (m²)

Purposes: comms

External: N2YO · Heavens-Above · Gunter

§ Orbital elements

Epoch: 2026-09-09T20:45:57.116160Z

Period
91.49 min
Inclination
53.0681°
Eccentricity
0.0003051
Mean motion
15.74013469 rev/d
Perigee alt
345.4 km
Apogee alt
349.5 km
Semi-major
6,725.6 km
B*
6.7664e-4
RAAN
41.0527°
Arg perigee
298.8852°
Mean anomaly
61.1860°
Rev number
30,644

§ Raw data

STARLINK-21471 47736U 21017Q   26252.86524440  .00098906  00000+0  67664-3 0  99912 47736  53.0681  41.0527 0003051 298.8852  61.1860 15.74013469306441

JSON: /api/v1/satellites/47736 · /tle

For live sub-satellite position, see the globe view (requires WebGL).

§ Visibility from observer

Set your observer location to see the next 7 days of passes ≥ 10°. The values pass through the URL so the page stays shareable.

No JS? Fill the form by hand. The geolocation button needs JavaScript.